Location: Ferchesar
(52.6477°N, 12.4298°E)
Time: 21:51:47
(UTC+01:00)

TIGRISAT - Pass Details

Date: 24 October 2021
Orbit: 603 x 689 km, 97.7° (Epoch: 30 November)

Event Time Altitude Azimuth Distance (km) Brightness Sun altitude
Rises 21:29:45 0° 7° (N) 2,992 ? -32.5°
Reaches altitude 10° 21:32:13 10° 356° (N) 2,061 ? -32.9°
Enters shadow 21:34:40 24° 328° (NNW) 1,345 ? -33.2°
Exits shadow 21:40:27 - 235° (SW) 2,251 ? -34.0°
Sets 21:42:08 0° 228° (SW) 2,892 ? -34.2°
